Location: ??? ?????
(30.6482°N, 60.5850°E)
Time: 05:44:51
(UTC+00:00)

CZ-2C R/B - Pass Details

Date: 09 April 2020
Orbit: 705 x 907 km, 98.1° (Epoch: 27 May)

Event Time Altitude Azimuth Distance (km) Brightness Sun altitude
Exits shadow 15:07:36 - 140° (SE) 2,436 5.1 -10.4°
Reaches altitude 10° 15:08:06 10° 138° (SE) 2,247 4.9 -10.5°
Maximum altitude 15:12:32 35° 73° (ENE) 1,157 3.5 -11.4°
Drops below altitude 10° 15:16:52 10° 8° (N) 2,190 5.5 -12.3°
Sets 15:19:15 0° 360° (N) 3,103 6.4 -12.8°
